Temperature
17 17 17 17 17 17 17 17 17 17 17 17 17 17 17 17 17 17 17 17 17 17 17 17 17 17 17 17 17 17 17 17 17 17 17 17 17 17 16 16 16 16 16
17 17 17 17 17 17 17 17 17 17 17 17 17 17 17 17 17 17 17 17 17 17 17 17 17 17 17 17 17 17 17 17 17 17 17 17 17 17 17 16 16 16 16
17 17 17 17 17 16 16 16 16 17 17 17 17 17 17 17 17 17 17 17 17 17 17 17 17 17 17 17 17 17 17 17 17 17 17 17 17 17 17 16 16 16 16
17 17 17 16 16 16 16 16 16 16 16 16 16 17 17 17 17 17 17 17 17 17 17 17 17 17 17 17 17 17 17 17 17 17 17 17 17 17 17 16 16 16 16
17 17 16 16 16 16 16 16 16 16 16 16 16 16 16 16 16 16 17 16 16 17 17 17 17 17 17 17 16 16 16 16 16 17 16 16 16 16 16 16 16 16 16
17 16 16 16 16 16 16 16 16 16 16 16 16 16 16 16 16 16 16 16 16 16 16 16 16 16 16 16 16 16 16 16 16 16 16 16 16 16 16 16 16 16 16
16 16 16 16 16 16 16 16 16 16 16 16 16 16 16 16 16 16 16 16 16 16 16 16 16 16 16 16 16 16 16 16 16 16 16 16 16 16 16 16 16 16 16
16 16 16 16 16 15 15 15 15 16 16 16 16 16 16 16 16 16 16 16 16 16 16 16 16 16 16 16 16 16 16 16 16 16 16 16 16 16 16 16 16 16 16
16 16 16 15 15 15 15 15 15 16 16 16 16 16 16 16 16 16 16 16 16 16 16 16 16 16 16 16 16 16 16 15 15 15 15 15 15 15 16 16 16 16 16
16 15 15 15 15 15 15 15 15 15 15 16 16 16 16 16 16 16 16 16 16 16 16 16 16 16 16 16 16 16 15 15 15 15 15 15 15 15 15 15 15 15 15
16 15 15 15 15 15 15 15 15 15 15 15 16 16 16 16 16 16 16 16 16 16 16 16 16 16 16 16 16 15 15 15 15 15 15 15 15 15 15 15 15 15 15
16 16 15 15 15 15 15 15 15 15 15 15 15 16 16 16 16 16 16 16 16 16 16 16 16 16 16 15 15 15 15 15 15 15 15 15 15 15 15 15 15 15 15
16 16 16 15 15 15 15 15 15 15 15 15 15 15 15 16 16 16 16 16 16 16 16 16 16 16 16 15 15 15 15 15 15 15 15 15 15 15 15 15 15 15 15
16 16 16 16 15 16 16 15 15 15 15 15 15 15 15 15 15 15 15 15 16 16 16 16 16 16 15 15 15 15 15 15 15 15 15 15 15 15 15 15 15 15 15
16 16 16 16 16 16 16 15 15 15 15 15 15 15 15 15 15 15 15 15 15 15 16 16 16 16 15 15 15 15 15 15 15 15 15 14 14 15 15 15 15 15 15
16 16 16 16 16 16 16 16 16 16 16 15 15 15 15 15 15 15 15 15 15 15 15 15 15 15 15 15 15 15 15 15 14 14 14 14 14 14 14 14 14 14 14
16 16 16 16 16 16 16 16 16 16 16 16 16 16 16 15 15 15 15 15 15 15 15 15 15 15 15 15 15 15 15 14 14 14 14 14 14 14 14 14 14 14 14
17 17 17 17 16 16 16 16 16 16 16 16 16 16 16 16 16 15 15 15 15 15 15 15 16 15 15 15 15 15 15 15 14 14 14 14 14 14 14 14 14 14 14
17 17 17 17 17 17 17 17 16 16 16 16 16 16 16 16 16 16 15 15 15 15 15 15 15 15 15 15 15 15 15 15 15 15 14 14 14 14 14 14 14 14 14
17 17 17 17 17 17 17 17 16 16 16 16 16 16 16 16 16 15 15 15 15 15 15 15 15 15 15 15 15 15 15 15 15 15 15 14 14 14 14 14 14 14 14
17 17 17 17 16 16 16 16 16 16 16 16 16 16 16 15 15 15 15 15 15 14 14 14 14 15 15 15 15 15 14 15 15 15 14 14 14 14 14 14 14 14 14
17 17 17 16 16 16 16 16 16 16 16 16 16 15 15 15 15 14 14 14 14 14 14 14 14 14 14 14 14 14 14 14 14 15 14 14 14 14 14 14 14 14 14
16 16 16 16 16 16 15 15 15 15 15 15 15 15 14 14 14 14 14 14 13 13 13 13 13 13 13 13 13 13 13 13 13 14 13 13 14 14 14 14 14 14 14
15 15 15 15 15 15 15 14 14 14 14 14 14 13 13 13 13 13 13 13 13 13 13 12 12 12 12 12 12 12 12 12 12 13 13 12 13 13 14 14 14 14 14
14 14 14 14 14 14 13 13 13 13 13 13 12 12 12 12 12 12 12 12 12 12 12 12 12 12 12 12 12 12 12 12 12 12 12 12 13 13 13 13 14 14 14
14 13 13 13 13 13 12 12 12 12 12 12 12 11 11 11 11 11 11 11 11 11 11 11 11 11 11 11 11 11 11 11 11 11 12 12 12 12 12 13 13 13 13
Wind_Speed
3 3 3 3 3 4 4 3 3 3 2 2 5 7 7 9 10 10 10 15 16 15 15 15 15 14 14 14 14 14 13 13 13 13 13 13 12 12 11 11 11 10 10
5 3 2 2 2 3 4 4 4 2 2 2 3 6 7 9 10 10 10 13 15 16 16 16 15 15 15 14 14 14 14 14 14 14 13 13 13 12 12 11 11 10 10
6 4 3 2 1 2 3 3 2 2 2 2 2 4 5 6 8 8 9 9 11 14 16 15 15 15 15 15 15 14 14 14 15 15 14 14 13 13 12 12 11 11 11
7 6 3 2 2 4 4 3 3 3 2 2 1 1 2 4 6 8 8 9 10 10 13 15 15 15 15 15 15 15 15 15 16 15 15 15 15 14 13 13 13 12 12
8 6 3 2 4 4 3 3 3 3 2 2 1 1 1 2 2 5 5 8 9 10 10 12 14 14 15 15 16 16 16 16 16 16 16 16 16 15 15 14 14 14 13
8 6 4 4 5 4 4 3 3 3 2 1 1 2 1 1 1 2 3 4 7 9 10 10 11 13 15 15 15 15 16 16 16 17 17 17 16 16 16 16 15 15 15
8 7 4 4 4 4 3 3 3 3 2 1 3 3 4 2 0 1 1 2 3 6 8 9 9 10 11 14 16 15 16 16 16 17 17 17 17 17 17 17 17 17 16
7 7 5 4 4 4 5 4 3 2 2 2 3 3 3 4 3 1 0 2 1 2 3 6 8 9 8 9 12 15 16 16 15 16 16 17 17 18 18 18 18 18 18
7 7 7 5 4 4 4 3 3 4 2 3 2 4 4 3 2 3 2 1 1 1 1 3 6 7 8 8 9 11 13 14 14 14 15 15 16 16 17 18 18 19 19
7 8 7 6 5 4 4 3 4 3 4 2 2 2 2 3 3 0 3 3 2 1 1 2 3 6 7 7 8 9 10 11 12 13 13 13 15 16 16 17 17 18 19
5 7 8 7 5 4 4 4 4 4 3 3 2 1 3 3 3 3 1 3 3 2 2 2 3 5 7 8 7 7 7 8 8 9 10 11 12 14 15 15 16 17 18
3 5 6 6 5 4 4 4 4 4 3 3 3 2 2 2 1 2 2 1 2 3 2 2 2 5 7 9 9 8 8 7 6 6 6 7 9 10 11 12 13 14 15
4 5 4 4 4 4 5 4 4 3 3 3 3 2 2 2 2 3 3 1 1 3 3 3 3 5 7 10 11 11 10 9 8 7 7 7 7 8 9 11 12 13 14
6 7 6 6 6 6 5 4 3 2 2 2 2 2 1 1 1 2 3 3 1 3 3 4 3 4 7 11 13 13 12 12 11 10 10 9 9 10 10 11 12 13 13
6 7 7 7 6 6 5 5 3 3 3 3 2 1 1 1 0 1 2 3 4 1 3 4 3 3 5 9 12 14 14 15 15 14 14 14 13 13 13 13 14 14 14
6 8 9 8 7 7 6 5 4 3 4 4 3 3 2 2 1 0 1 2 3 4 4 3 4 3 3 6 11 15 16 17 18 18 18 18 18 18 18 17 17 17 17
7 8 9 9 9 8 7 6 6 5 5 5 4 4 5 4 3 2 1 1 2 3 4 5 3 3 3 4 5 12 15 16 17 20 21 21 22 22 22 22 21 21 20
7 8 9 9 9 9 8 8 8 7 7 7 7 6 7 5 5 4 4 4 4 4 5 6 4 3 5 5 5 5 10 14 16 19 22 23 24 25 25 25 25 24 24
7 8 8 9 9 9 9 9 9 8 8 8 8 8 8 7 7 6 6 6 5 5 5 5 6 4 5 5 5 6 6 7 13 17 20 22 25 26 26 26 27 27 26
7 7 8 8 9 9 9 9 9 9 9 9 8 9 9 9 9 9 8 8 7 7 6 6 7 6 6 6 4 6 7 6 7 11 15 18 20 23 25 26 27 27 27
7 7 7 7 7 7 7 8 8 8 8 8 8 8 9 10 12 10 8 7 7 7 7 7 9 7 7 6 6 6 8 8 7 7 7 9 10 11 15 21 24 26 27
4 4 5 5 5 5 5 8 7 6 5 6 6 6 7 7 8 10 11 10 9 9 9 8 9 10 11 9 8 7 7 7 8 5 6 9 6 9 9 15 21 24 26
0 1 2 3 2 2 3 3 5 3 2 3 3 4 4 4 4 4 6 8 9 12 12 10 11 12 11 9 8 9 9 10 11 7 5 8 7 10 9 17 22 25 26
3 2 2 2 3 2 2 2 1 1 1 2 2 2 2 3 5 5 5 5 6 7 9 9 10 12 11 9 9 11 12 11 9 7 6 9 8 9 9 12 21 24 26
5 4 4 5 5 4 5 5 4 3 3 4 5 5 4 4 7 9 6 7 8 9 10 12 13 14 17 18 14 9 8 9 12 10 7 8 9 9 9 10 15 23 26
5 5 6 5 6 5 6 7 7 4 4 4 4 5 6 6 8 9 6 6 9 10 10 12 11 12 11 13 16 12 11 12 11 9 7 7 9 7 7 8 10 12 16
Wind_Direction
129 136 146 153 163 171 170 164 177 184 167 148 136 137 149 158 168 177 195 198 191 185 184 184 182 181 180 178 176 174 173 171 169 168 166 166 165 164 162 160 159 158 156
125 117 108 121 129 150 165 167 169 161 156 145 137 141 153 157 170 185 193 200 196 193 191 190 190 189 188 187 187 184 182 180 178 178 177 175 174 173 172 170 169 168 167
116 111 109 107 106 126 141 131 117 110 126 129 125 138 148 160 173 185 194 200 203 204 201 198 197 197 196 194 194 193 192 190 187 186 185 185 184 183 183 182 180 179 179
106 105 106 99 85 93 106 107 94 93 84 98 110 141 153 166 174 186 196 202 207 210 211 208 206 205 203 202 201 200 200 198 196 195 194 193 193 193 193 192 191 191 191
104 104 97 83 90 91 86 103 87 106 105 99 123 131 148 157 166 180 193 205 211 212 211 215 215 214 211 209 208 207 205 204 203 202 202 201 201 201 201 201 200 200 201
102 102 93 79 90 91 82 86 87 79 108 122 78 70 73 157 168 172 195 199 211 212 210 214 216 220 221 218 215 214 213 210 209 209 209 208 208 208 209 209 209 209 209
104 99 93 78 86 94 98 97 88 70 50 74 72 32 5 8 1 201 173 175 203 206 205 210 212 216 224 227 225 223 221 217 214 215 214 214 214 214 215 216 217 216 216
117 107 106 100 91 92 77 69 77 83 30 62 113 91 33 356 347 337 206 174 179 178 194 206 208 212 218 223 227 228 227 224 222 221 221 220 220 220 220 221 222 223 223
124 117 113 107 94 103 97 84 82 101 79 23 79 135 140 200 296 334 320 249 183 167 199 202 202 208 213 218 224 229 232 231 229 227 226 226 226 226 226 227 227 226 227
141 133 121 113 105 107 110 107 92 99 106 65 16 37 141 155 143 305 328 321 300 214 209 201 192 200 205 207 215 224 229 234 235 236 234 232 233 232 232 233 234 233 232
159 150 135 126 120 116 117 107 95 89 99 109 87 55 56 56 82 131 228 313 332 305 259 227 195 193 194 194 199 206 214 224 233 240 242 241 238 236 237 239 240 240 238
170 168 154 144 143 136 134 127 117 107 104 101 94 90 105 105 112 127 162 254 288 294 289 266 220 207 199 196 200 199 200 206 217 230 242 246 245 243 244 244 246 246 245
189 193 169 159 158 164 160 146 133 128 128 120 124 118 116 140 160 144 133 163 302 306 319 298 250 228 211 203 206 205 204 208 215 223 232 241 247 250 251 252 253 253 251
199 190 180 176 176 175 170 155 148 165 159 156 150 141 137 163 152 155 153 142 59 334 324 290 295 243 224 211 212 208 210 215 220 227 233 240 246 249 251 252 253 254 255
202 190 183 182 182 181 176 166 175 194 188 195 200 197 198 242 186 168 163 156 150 184 283 285 291 283 244 226 220 213 217 222 226 232 239 245 248 251 251 251 251 252 253
199 183 185 185 186 186 182 177 184 199 195 212 211 215 232 236 251 222 161 169 164 170 225 265 262 274 258 241 235 223 227 230 232 236 241 246 250 253 254 253 252 252 252
191 186 186 187 191 194 193 191 202 204 208 226 229 221 235 233 240 247 221 188 188 175 224 270 263 273 258 251 246 237 242 241 241 242 244 248 251 254 255 254 253 253 253
193 191 188 190 198 201 199 199 210 213 213 224 231 229 237 236 236 239 235 236 230 210 213 259 275 271 257 249 242 240 243 244 242 246 247 249 252 254 255 255 253 253 253
197 193 191 196 204 205 205 208 211 216 218 223 225 226 232 229 237 236 233 236 239 238 219 239 266 261 264 260 261 261 253 249 250 251 250 251 252 253 254 254 253 251 251
199 199 199 202 205 207 208 212 213 219 225 229 228 228 230 226 231 232 235 234 234 241 239 245 261 264 261 260 249 259 271 258 256 255 254 252 252 253 254 253 252 251 250
210 204 203 208 209 211 217 214 217 223 226 234 238 237 238 236 234 234 239 235 232 239 243 248 259 266 264 259 251 246 259 266 263 246 253 255 252 253 254 254 252 251 250
226 207 204 209 214 225 226 216 209 222 225 233 245 254 257 255 256 252 252 249 237 239 246 248 255 257 262 255 254 250 254 262 271 243 227 255 238 248 247 247 249 248 248
140 181 186 183 188 217 233 218 213 214 239 255 264 274 280 294 303 293 283 278 268 259 251 251 257 259 263 257 250 254 249 247 256 252 226 259 247 249 248 249 247 247 248
71 74 83 103 102 75 86 106 113 104 50 355 342 332 334 357 3 351 330 320 304 292 278 266 261 267 269 264 250 253 257 259 258 251 223 255 255 252 252 247 249 247 247
67 63 64 75 80 57 60 70 79 64 41 19 16 24 26 17 9 11 357 331 315 305 301 294 286 279 278 275 269 268 262 261 268 262 228 241 256 257 254 252 250 248 247
76 72 66 70 75 65 60 72 82 70 51 30 19 19 25 19 3 1 348 320 305 301 306 308 302 295 283 276 270 255 254 258 265 266 235 233 251 249 263 252 249 248 248
Height
1555 1556 1557 1557 1559 1560 1561 1563 1564 1565 1567 1568 1569 1569 1570 1571 1572 1573 1573 1574 1575 1576 1577 1578 1579 1580 1580 1581 1582 1583 1584 1585 1586 1587 1588 1589 1590 1590 1591 1592 1593 1594 1595
1555 1555 1556 1557 1558 1559 1560 1562 1563 1564 1565 1567 1568 1569 1569 1570 1571 1572 1573 1574 1575 1576 1576 1577 1578 1579 1580 1581 1582 1583 1584 1585 1586 1587 1588 1589 1590 1590 1591 1592 1593 1594 1595
1554 1554 1555 1556 1557 1558 1559 1560 1562 1563 1564 1566 1567 1568 1569 1570 1570 1571 1572 1573 1574 1575 1576 1576 1577 1578 1579 1580 1581 1582 1584 1585 1586 1587 1588 1588 1589 1590 1591 1592 1593 1594 1594
1553 1553 1554 1555 1556 1557 1558 1560 1561 1562 1564 1565 1566 1567 1568 1569 1570 1571 1571 1572 1573 1574 1575 1576 1576 1577 1578 1579 1580 1581 1583 1584 1585 1586 1587 1588 1589 1590 1591 1592 1592 1593 1594
1552 1552 1553 1554 1555 1556 1558 1559 1561 1562 1563 1564 1566 1567 1568 1568 1569 1569 1570 1571 1572 1573 1573 1574 1575 1576 1577 1578 1579 1580 1581 1582 1583 1585 1586 1587 1588 1589 1590 1591 1592 1593 1593
1551 1552 1553 1554 1555 1556 1557 1559 1560 1561 1563 1564 1565 1566 1567 1568 1568 1569 1569 1570 1571 1571 1572 1573 1574 1575 1575 1576 1577 1578 1579 1580 1582 1583 1584 1586 1587 1588 1589 1590 1591 1591 1592
1551 1552 1552 1553 1554 1555 1557 1558 1559 1561 1562 1563 1564 1566 1567 1568 1568 1568 1569 1569 1570 1570 1571 1572 1572 1573 1573 1574 1575 1576 1577 1578 1579 1581 1582 1584 1585 1586 1587 1588 1589 1590 1591
1550 1551 1552 1553 1554 1555 1556 1557 1559 1560 1561 1562 1564 1565 1566 1568 1568 1568 1568 1569 1569 1570 1570 1571 1571 1572 1572 1573 1573 1574 1574 1575 1577 1578 1579 1581 1582 1583 1585 1586 1587 1588 1589
1550 1551 1552 1553 1554 1555 1556 1557 1558 1560 1561 1562 1563 1564 1565 1566 1567 1568 1568 1568 1569 1569 1569 1570 1570 1570 1571 1571 1571 1572 1572 1573 1574 1575 1576 1577 1579 1580 1582 1583 1584 1585 1586
1550 1550 1551 1552 1553 1554 1555 1556 1558 1559 1560 1561 1562 1563 1564 1564 1566 1567 1568 1568 1568 1568 1569 1569 1569 1569 1570 1570 1570 1570 1570 1571 1571 1572 1573 1574 1575 1576 1578 1579 1580 1581 1582
1549 1550 1551 1552 1553 1554 1555 1556 1557 1559 1560 1561 1562 1562 1563 1564 1564 1565 1566 1567 1567 1568 1568 1568 1568 1568 1568 1568 1568 1569 1569 1569 1569 1570 1570 1571 1572 1573 1574 1575 1576 1577 1578
1549 1550 1551 1552 1553 1553 1554 1555 1557 1558 1559 1560 1561 1562 1563 1563 1564 1564 1565 1565 1566 1566 1567 1567 1567 1567 1567 1567 1567 1567 1567 1567 1567 1568 1568 1568 1569 1569 1570 1570 1571 1572 1573
1548 1549 1551 1551 1552 1553 1554 1555 1556 1557 1558 1559 1561 1562 1562 1563 1563 1564 1564 1564 1565 1565 1565 1565 1566 1566 1566 1566 1565 1565 1565 1565 1565 1565 1565 1565 1565 1565 1566 1566 1567 1567 1568
1548 1549 1550 1551 1552 1552 1553 1554 1555 1556 1557 1558 1559 1560 1561 1562 1562 1563 1563 1564 1563 1563 1563 1563 1563 1563 1564 1564 1564 1563 1563 1563 1563 1562 1562 1561 1561 1561 1561 1561 1562 1562 1563
1547 1548 1549 1550 1551 1552 1552 1553 1554 1554 1556 1557 1558 1559 1559 1560 1561 1561 1562 1562 1563 1561 1561 1561 1561 1561 1561 1561 1561 1561 1560 1560 1560 1559 1558 1558 1557 1557 1556 1556 1557 1557 1558
1546 1547 1548 1549 1550 1551 1551 1552 1552 1553 1554 1555 1556 1557 1558 1559 1559 1560 1560 1560 1560 1560 1559 1559 1559 1559 1558 1558 1558 1558 1557 1557 1556 1555 1554 1553 1553 1552 1552 1552 1552 1552 1552
1544 1546 1547 1548 1549 1549 1550 1551 1551 1552 1553 1553 1554 1555 1556 1557 1557 1558 1558 1558 1558 1558 1556 1556 1556 1556 1555 1555 1555 1554 1553 1553 1552 1551 1550 1549 1548 1548 1547 1547 1547 1547 1547
1542 1544 1545 1546 1547 1548 1548 1549 1550 1550 1551 1552 1552 1553 1554 1554 1555 1555 1555 1555 1555 1555 1554 1552 1552 1552 1552 1551 1551 1550 1549 1548 1547 1546 1546 1545 1544 1543 1542 1542 1542 1542 1541
1540 1541 1542 1543 1544 1545 1546 1547 1547 1548 1549 1549 1550 1550 1551 1551 1552 1552 1552 1552 1552 1552 1551 1549 1547 1547 1547 1547 1546 1545 1544 1543 1542 1541 1541 1540 1539 1538 1537 1537 1536 1536 1536
1537 1538 1539 1540 1541 1542 1543 1544 1544 1545 1545 1546 1547 1547 1548 1548 1548 1548 1548 1548 1547 1547 1546 1544 1542 1542 1541 1541 1541 1539 1538 1537 1536 1536 1535 1534 1533 1532 1532 1531 1530 1530 1530
1533 1534 1536 1536 1537 1538 1539 1539 1540 1541 1541 1542 1542 1543 1543 1543 1543 1543 1543 1542 1542 1541 1540 1539 1537 1536 1534 1534 1534 1533 1531 1530 1529 1529 1528 1527 1526 1525 1525 1524 1524 1524 1523
1529 1531 1531 1532 1532 1533 1534 1535 1536 1536 1537 1537 1537 1537 1538 1538 1537 1537 1537 1536 1536 1535 1533 1532 1530 1529 1527 1527 1527 1526 1524 1523 1520 1521 1520 1518 1519 1517 1517 1517 1517 1516 1516
1525 1526 1527 1528 1528 1529 1530 1530 1531 1531 1532 1532 1531 1531 1531 1531 1531 1530 1529 1529 1528 1528 1527 1525 1523 1521 1520 1519 1519 1517 1516 1514 1511 1512 1512 1508 1509 1507 1508 1508 1508 1508 1508
1522 1522 1523 1524 1525 1525 1526 1526 1526 1527 1526 1526 1526 1525 1525 1524 1523 1522 1521 1520 1520 1519 1518 1517 1515 1513 1512 1511 1510 1509 1506 1504 1502 1502 1503 1498 1498 1497 1498 1498 1498 1498 1498
1519 1520 1520 1521 1521 1521 1522 1522 1522 1522 1522 1521 1521 1520 1519 1518 1517 1515 1514 1512 1511 1510 1509 1507 1505 1504 1502 1502 1501 1499 1496 1494 1490 1490 1492 1489 1487 1487 1486 1486 1487 1488 1488
1517 1518 1518 1518 1518 1519 1519 1518 1518 1518 1517 1517 1516 1515 1514 1513 1511 1509 1507 1505 1502 1501 1499 1497 1495 1494 1492 1491 1491 1489 1487 1484 1480 1477 1480 1480 1477 1477 1473 1473 1475 1476 1476